THORAD AGENA D DEB, 4654

Orbit data source: Space-Track

THORAD AGENA D DEB, 4654 is space debris in SSO originally from a launch on Wed, 08 Apr 1970 UTC launched from the Air Force Western Test Range (AFWTR). Debris objects in space refer to the collection of defunct objects orbiting the Earth. Examples of debris include non-operational satellites, rocket bodies, and fragments generated from explosions, collisions, or faulty payload assembly.

Loading next visibility...
THORAD AGENA D DEB details
Identifier
4654, 1970-025AN
Orbit
SSO
Last TLE update8 hours ago
Origin
Flag of USGSFC (US)
ManufacturerUnknown
MissionSpacecraft
Bus & MotorUnknown
MassUnknown
Launch date (UTC)
1970-04-08 (55 years ago)
Launch vehicleUnknown
Launch site
Air Force Western Test Range (AFWTR)
Object type
Payload
Rocket body
Debris
Shape & HBRUnknown
Radar Cross SectionSmall (<0.1 m²)

Expand to show TLE details & history

TLE from 8 hours ago
0 THORAD AGENA D DEB
1  4654U 70025AN  24361.13834133  .00005950  00000-0  32237-2 0  9993
2  4654 100.0046  97.8712 0027671 109.4137 251.0025 14.12687439764315
Epoch: 2024-12-26T03:19Z
Definitive object data (Epoch: 2024-12-26T03:19:12.69Z)
Latitude-0.00007°
Longitude-47.0537°
Altitude859.612 km
Speed7.419 km/s
True Right ascension06h 31m 29s
True Declination0° 00' 00"
Sunlit
Object was in full shadow at TLE epoch
Visualization TLE readout
Latitude-16.76813°
Longitude130.27447°
Altitude856.049 km
Speed7.424 km/s
Apparent Right ascension19h 59m 24s
Apparent Declination-30° 56' 30"
Sunlit
Object is in daylight
Visualization observer readout
Local Sidereal Time10:24:00
Azimuth84.352° E
Elevation-59.441°
Doppler factor1
Orbital elements
Apogee altitude867.418 km
Perigee altitude827.431 km
Semi-major axis7,225.561 km
Eccentricity0.0027671
Inclination100.0046°
RAAN97.8712°
Arg. of periapsis109.4137°
True anomaly250.70302°
Mean anomaly251.0025°
Eccentric anomaly250.85273°
Mean motion3.53375 °/min
BSTAR0.0032237
Orbital period101.87 mins
Loading maneuver chart data...

THORAD AGENA D DEB Visibility forecast

Observer location: undefined°, undefined

Span
Click to sort rows by Start time (UTC) header in descending order
Start Az.
Max El. time (UTC)
Max El. Az.
Max El.
End time (UTC)
End Az.
10 mins2024-12-26 19:11:42.978Z26.809° NE2024-12-26 19:16:42.978Z98.887° ESE37.228°2024-12-26 19:21:42.978Z175.608° S
6 mins2024-12-26 20:54:42.978Z330.163° NNW2024-12-26 20:56:42.978Z301.811° NW20.472°2024-12-26 21:00:42.978Z251.139° W
9 mins2024-12-27 06:38:42.978Z167.411° S2024-12-27 06:42:42.978Z306.585° NW44.476°2024-12-27 06:47:42.978Z343.24° N
|